Volver al catálogo

SL-14 R/B

ActivoPO
NORAD 22652·ROCKET BODY·🇷🇺 Russia

Lanzado May 11, 1993 desde Plesetsk Cosmodrome

Loading…

Próximos Pases (próximas 24 horas)

TLE

ActualizadoSource: Space-Track

Época: Sep 14, 2026, 23:02 UTC

1 22652U 93030G   26257.96005866  .00000002  00000-0 -45405-4 0  9999
2 22652  82.5818 266.8592 0008896  94.7298 276.1070 12.63201778537374

Sigue SL-14 R/B en tiempo real con AllMySat

Download on the App Store